[[{"header":{"parameterUnit":"m.s-1","parameterCategory":2,"la1":30.2991,"la2":30.254,"lo1":-89.0895,"lo2":-89.0444,"dy":0.0017,"dx":0.0017,"nx":28,"ny":28,"refTime":"2026-02-12T03:00:00:Z","depth":"0","parameterNumber":2,"parameterNumberName":"U-component_of_CURRENTS"},"data":[0,0,0,0,0,0,0,0,0,0,0,0,0,0,0,0,0,0,0,0,0,0,0,0,0,0,0,0,0,0,0,0,0,0,0,0,0,0,0,0,0,0,0,0,0,0,0,0,0,0,0,0,0,0,0,0,0,0,-0.2246,-0.2247,0,-0.2374,-0.2376,-0.2378,-0.2495,-0.2496,-0.2497,-0.2498,-0.2539,-0.254,-0.254,0,0,0,0,0,0,0,0,0,0,0,0,0,-0.2155,-0.2156,-0.2246,-0.2247,-0.2248,-0.2374,-0.2376,-0.2378,-0.2494,-0.2496,-0.2497,-0.2498,-0.2539,-0.254,-0.254,0,0,0,0,0,0,0,0,0,0,0,0,0,-0.2234,-0.2157,-0.2245,-0.2318,-0.2325,-0.2374,-0.2376,-0.2379,-0.2494,-0.2496,-0.2497,-0.2499,-0.2539,-0.254,-0.254,-0.2511,0,0,-0.2541,-0.2541,0,0,0,0,0,0,0,0,-0.2229,-0.2238,-0.2306,-0.2313,-0.2321,-0.2416,-0.236,-0.2417,-0.2494,-0.2435,-0.2498,-0.2499,-0.2486,-0.2491,-0.2519,-0.2513,-0.2515,-0.2541,-0.2541,-0.2541,-0.2541,0,0,0,0,0,0,0,-0.2224,-0.2233,-0.2301,-0.2307,-0.2316,-0.2362,-0.2375,-0.2372,-0.2452,-0.244,-0.2448,-0.2455,-0.2491,-0.2519,-0.2521,-0.2516,-0.2541,-0.2541,-0.2541,-0.2541,-0.2479,-0.2477,0,0,0,0,0,0,-0.2195,-0.2227,-0.2297,-0.2304,-0.2273,-0.2362,-0.2377,-0.2388,-0.2454,-0.2465,-0.2453,-0.2459,-0.2518,-0.252,-0.2522,-0.2476,-0.2541,-0.2541,-0.2541,-0.2481,-0.2478,-0.2476,0,0,0,0,0,0,-0.2192,-0.22,-0.2292,-0.2265,-0.228,-0.2361,-0.2373,-0.2389,-0.2419,-0.2465,-0.2475,-0.2465,-0.2519,-0.2522,-0.252,-0.2479,-0.2541,-0.2542,-0.2483,-0.248,-0.2477,-0.2392,0,0,0,0,0,0,-0.2189,-0.2198,-0.2199,-0.2263,-0.228,-0.2308,-0.2372,-0.2391,-0.2419,-0.2429,-0.2477,-0.2484,-0.252,-0.252,-0.252,-0.248,-0.2542,-0.2485,-0.2482,-0.2478,-0.2397,-0.2387,-0.2378,0,0,0,0,0,-0.2186,-0.2185,-0.2198,-0.2206,-0.2277,-0.2306,-0.2319,-0.2386,-0.2417,-0.242,-0.2459,-0.2483,-0.2498,-0.2519,-0.252,-0.2479,-0.2487,-0.2483,-0.2479,-0.2401,-0.2389,-0.2378,0,0,0,0,0,0,-0.2155,-0.2198,-0.2214,-0.2228,-0.2253,-0.2324,-0.2338,-0.2372,-0.2409,-0.2418,-0.2466,-0.2473,-0.2457,-0.2474,-0.2495,-0.2449,-0.2492,-0.2488,-0.2433,-0.2421,-0.2412,-0.2431,-0.2542,0,0,0,0,0,-0.214,-0.2147,-0.2189,-0.2196,-0.2206,-0.2265,-0.2286,-0.2323,-0.2362,-0.2382,-0.241,-0.2432,-0.2439,-0.2437,-0.2451,-0.242,-0.2435,-0.2391,-0.2381,-0.2373,-0.2388,-0.2376,-0.2367,-0.2463,-0.2463,-0.2463,0,0,-0.213,-0.2152,-0.2157,-0.2188,-0.222,-0.2234,-0.2283,-0.2305,-0.2315,-0.2373,-0.2386,-0.24,-0.2426,-0.2407,-0.2398,-0.2415,-0.2345,-0.2368,-0.2361,-0.2381,-0.2371,-0.2361,-0.2353,-0.246,-0.2461,-0.2461,0,0,-0.2113,-0.2128,-0.2131,-0.2147,-0.2176,-0.2205,-0.2202,-0.225,-0.227,-0.2271,-0.2316,-0.2308,-0.2317,-0.233,-0.2338,-0.2275,-0.23,-0.2264,-0.2224,-0.221,-0.2203,-0.2197,-0.2172,-0.2164,-0.2252,-0.2252,-0.2252,0,-0.21,-0.211,-0.2133,-0.2141,-0.2154,-0.2185,-0.2192,-0.2208,-0.2246,-0.2251,-0.226,-0.2278,-0.2284,-0.2275,-0.2255,-0.2252,-0.2252,-0.2267,-0.2199,-0.2193,-0.2188,-0.2165,-0.2157,-0.2248,-0.2248,-0.2249,-0.2249,0,-0.209,-0.2097,-0.2097,-0.2115,-0.2127,-0.2132,-0.2153,-0.2153,-0.2165,-0.2186,-0.2173,-0.2183,-0.2201,-0.2176,-0.2198,-0.2159,-0.217,-0.2193,-0.2231,-0.2174,-0.2152,-0.2145,-0.2241,-0.2243,-0.2244,-0.2245,0,0,-0.2063,-0.2087,-0.2086,-0.2092,-0.2114,-0.2123,-0.2119,-0.2129,-0.2133,-0.2128,-0.213,-0.2111,-0.2122,-0.2131,-0.2136,-0.2111,-0.2049,-0.2131,-0.2132,-0.2111,-0.201,-0.1919,-0.1904,-0.2063,-0.2062,-0.2061,-0.1997,0,-0.2048,-0.2054,-0.2072,-0.2071,-0.2075,-0.2097,-0.2095,-0.2104,-0.2107,-0.2108,-0.2097,-0.2101,-0.2101,-0.21,-0.2073,-0.2078,-0.2036,-0.2065,-0.2067,-0.2067,-0.1997,-0.1895,-0.1827,-0.1756,-0.1992,-0.1991,-0.199,0,-0.2027,-0.2037,-0.2037,-0.2054,-0.2058,-0.206,-0.2068,-0.2072,-0.2077,-0.208,-0.2077,-0.2088,-0.2062,-0.2064,-0.2025,-0.2047,-0.2018,-0.2005,-0.2003,-0.1953,-0.1964,-0.1858,-0.1737,-0.1729,-0.1981,-0.1982,-0.1983,0,-0.1989,-0.2007,-0.2005,-0.2012,-0.2036,-0.2037,-0.2047,-0.2059,-0.2062,-0.2067,-0.2068,-0.2058,-0.2048,-0.2024,-0.1989,-0.2012,-0.1936,-0.1969,-0.1853,-0.1847,-0.1808,-0.1799,-0.1689,-0.1918,-0.1919,-0.1919,-0.1919,0,-0.1959,-0.1954,-0.1987,-0.1986,-0.1982,-0.2012,-0.2009,-0.202,-0.2036,-0.2035,-0.2052,-0.204,-0.2037,-0.2,-0.1976,-0.1879,-0.1921,-0.1825,-0.1814,-0.177,-0.1759,-0.1769,-0.1805,-0.1916,-0.1917,-0.1917,-0.1918,0,-0.1904,-0.1929,-0.1926,-0.1954,-0.1962,-0.1957,-0.1984,-0.1983,-0.2008,-0.2006,-0.2008,-0.2017,-0.1963,-0.1933,-0.1884,-0.1842,-0.1739,-0.1731,-0.1666,-0.1647,-0.1528,-0.1562,-0.1472,-0.1429,-0.1596,-0.1593,-0.1591,0,-0.1871,-0.1866,-0.1893,-0.1892,-0.1901,-0.1908,-0.1913,-0.1954,-0.196,-0.1984,-0.1976,-0.1938,-0.1879,-0.1761,-0.1683,-0.1586,-0.1615,-0.1476,-0.1495,-0.1479,-0.1512,-0.155,-0.1525,-0.1407,-0.1403,-0.14,-0.1398,0,-0.1802,-0.1814,-0.1815,-0.182,-0.1825,-0.1831,-0.1846,-0.1851,-0.1898,-0.1896,-0.1871,-0.1826,-0.1712,-0.1574,-0.1447,-0.1394,-0.1442,-0.1408,-0.1417,-0.1357,-0.137,-0.1337,-0.1496,-0.1371,-0.1374,-0.1376,-0.1377,-0.1378,-0.1737,-0.1724,-0.1731,-0.1723,-0.1735,-0.1729,-0.1703,-0.1738,-0.1729,-0.171,-0.1733,-0.1634,-0.1525,-0.1324,-0.1258,-0.1141,-0.1214,-0.1128,-0.1171,-0.1212,-0.1157,-0.1233,-0.1081,-0.1082,-0.1083,-0.1084,-0.1085,0,-0.1639,-0.1636,-0.1632,-0.1616,-0.1587,-0.1629,-0.1633,-0.1592,-0.1553,-0.1548,-0.15,-0.137,-0.1224,-0.1141,-0.1011,-0.0945,-0.0945,-0.0935,-0.1002,-0.0986,-0.1065,-0.1043,-0.0844,-0.0844,-0.0844,-0.0844,-0.0844,-0.0844,-0.1587,-0.1544,-0.1544,-0.146,-0.1453,-0.1388,-0.1368,-0.1331,-0.1298,-0.1184,-0.1122,-0.1057,-0.1023,-0.1055,-0.0948,-0.089,-0.0895,-0.0855,-0.0884,-0.0983,-0.1006,-0.1028,-0.1013,-0.0811,-0.0811,-0.0771,-0.0771,-0.0771]},{"header":{"parameterUnit":"m.s-1","parameterCategory":2,"la1":30.2991,"la2":30.254,"lo1":-89.0895,"lo2":-89.0444,"dy":0.0017,"dx":0.0017,"nx":28,"ny":28,"refTime":"2026-02-12T03:00:00:Z","depth":"0","parameterNumber":3,"parameterNumberName":"V-component_of_CURRENTS"},"data":[0,0,0,0,0,0,0,0,0,0,0,0,0,0,0,0,0,0,0,0,0,0,0,0,0,0,0,0,0,0,0,0,0,0,0,0,0,0,0,0,0,0,0,0,0,0,0,0,0,0,0,0,0,0,0,0,0,0,-0.0426,-0.0425,0,-0.0289,-0.0287,-0.0285,-0.0132,-0.0131,-0.013,-0.0129,0.0158,0.0164,0.017,0,0,0,0,0,0,0,0,0,0,0,0,0,-0.0416,-0.0417,-0.0426,-0.0425,-0.0424,-0.029,-0.0287,-0.0284,-0.0132,-0.0131,-0.0129,-0.0128,0.0156,0.0163,0.0171,0,0,0,0,0,0,0,0,0,0,0,0,0,-0.0354,-0.0417,-0.0426,-0.0341,-0.0333,-0.029,-0.0287,-0.0283,-0.0133,-0.0131,-0.0129,-0.0127,0.0153,0.0163,0.0172,0.0196,0,0,0.0202,0.0206,0,0,0,0,0,0,0,0,-0.0358,-0.0353,-0.0354,-0.0347,-0.0338,-0.0236,-0.0179,-0.0119,-0.0133,-0.0197,-0.0129,-0.0127,0.0031,0.0051,0.0087,0.0209,0.0221,0.0203,0.0209,0.0213,0.0216,0,0,0,0,0,0,0,-0.0362,-0.0357,-0.036,-0.0354,-0.0344,-0.0263,-0.0252,-0.0166,-0.0083,-0.0191,-0.0183,-0.0186,0.0039,0.0077,0.0095,0.0226,0.0203,0.0211,0.0217,0.0221,0.042,0.042,0,0,0,0,0,0,-0.0411,-0.0363,-0.0365,-0.0357,-0.0356,-0.0266,-0.0253,-0.0261,-0.0087,-0.0063,-0.0188,-0.0179,0.0059,0.0083,0.0105,0.0157,0.0213,0.0222,0.0228,0.0421,0.042,0.0419,0,0,0,0,0,0,-0.0412,-0.0413,-0.0371,-0.0365,-0.0355,-0.027,-0.0279,-0.026,-0.0219,-0.0088,-0.0058,-0.0169,0.0062,0.0092,0.0176,0.0169,0.0226,0.0235,0.0421,0.042,0.042,0.0252,0,0,0,0,0,0,-0.0412,-0.0414,-0.0422,-0.0369,-0.0358,-0.035,-0.0281,-0.0259,-0.023,-0.0217,-0.0062,-0.0034,0.0065,0.0161,0.0186,0.0184,0.0243,0.0422,0.0421,0.042,0.0259,0.0246,0.0235,0,0,0,0,0,-0.0412,-0.0427,-0.0423,-0.0423,-0.0377,-0.0352,-0.0337,-0.0262,-0.0232,-0.0217,-0.012,-0.0038,0.0173,0.0168,0.0197,0.0198,0.0423,0.0421,0.042,0.0264,0.0249,0.0236,0,0,0,0,0,0,-0.0413,-0.0413,-0.0407,-0.0418,-0.0398,-0.0331,-0.0311,-0.0278,-0.0192,-0.0173,-0.0046,-0.0011,0.0056,0.0147,0.0138,0.0252,0.0311,0.0316,0.0183,0.0169,0.0158,0.0153,0.0251,0,0,0,0,0,-0.0431,-0.0446,-0.0432,-0.044,-0.0438,-0.0384,-0.0362,-0.0323,-0.0254,-0.0214,-0.0118,-0.0011,0.0072,0.0134,0.0222,0.0286,0.0362,0.0307,0.0295,0.0285,0.0301,0.0386,0.0382,0.0415,0.0415,0.0415,0,0,-0.0434,-0.0439,-0.0445,-0.0443,-0.0416,-0.041,-0.0361,-0.0342,-0.0322,-0.0197,-0.0129,-0.0055,0.0075,0.0143,0.0184,0.0224,0.0308,0.0283,0.0273,0.0296,0.0384,0.0381,0.0378,0.0415,0.0415,0.0415,0,0,-0.0451,-0.0458,-0.0476,-0.0469,-0.046,-0.0429,-0.0438,-0.039,-0.0349,-0.0299,-0.0209,-0.0144,-0.0007,0.008,0.0144,0.0122,0.023,0.0146,0.0103,0.0182,0.018,0.018,0.0235,0.024,0.0155,0.0155,0.0155,0,-0.0454,-0.048,-0.0473,-0.0486,-0.0483,-0.045,-0.0457,-0.0417,-0.0346,-0.0313,-0.0292,-0.0124,-0.0031,0.0062,0.0051,0.0097,0.0151,0.0139,0.0165,0.0166,0.0169,0.0226,0.0235,0.0147,0.0148,0.0149,0.0149,0,-0.0484,-0.0501,-0.051,-0.0522,-0.0514,-0.0518,-0.0489,-0.0466,-0.0431,-0.0383,-0.0311,-0.0208,-0.0096,-0.0077,-0.0014,0.0044,0.0077,0.0121,0.0193,0.0155,0.0218,0.0229,0.0135,0.0138,0.0141,0.0143,0,0,-0.0501,-0.0528,-0.0531,-0.0544,-0.0537,-0.0535,-0.0516,-0.0482,-0.0457,-0.04,-0.0353,-0.0251,-0.0206,-0.0132,-0.0061,0.0001,0.0034,0.0058,0.0066,0.0097,0.0192,0.0212,0.0227,0.0077,0.0079,0.0081,0.0215,0,-0.0525,-0.0566,-0.0565,-0.0586,-0.0604,-0.0575,-0.0558,-0.0521,-0.0473,-0.0419,-0.0332,-0.026,-0.0221,-0.0182,-0.0119,0.0007,0.0064,-0.0007,0.024,0.0247,0.0258,0.0242,0.026,0.0382,0.0227,0.0229,0.0231,0,-0.0556,-0.0581,-0.0617,-0.0629,-0.0632,-0.0632,-0.0602,-0.0581,-0.05,-0.0461,-0.0387,-0.0312,-0.0213,-0.0185,0.0004,-0.0045,0.006,0.0145,0.0153,0.025,0.0291,0.0406,0.041,0.0506,0.025,0.0249,0.0247,0,-0.0584,-0.0614,-0.0646,-0.0653,-0.0658,-0.0657,-0.0648,-0.0591,-0.0565,-0.0483,-0.0451,-0.0327,-0.0251,-0.0117,0.0049,0.0034,0.0254,0.0268,0.0383,0.0385,0.0493,0.0501,0.0616,0.0402,0.0401,0.0401,0.0401,0,-0.0619,-0.0643,-0.0664,-0.0685,-0.0708,-0.0694,-0.069,-0.0661,-0.0603,-0.056,-0.0474,-0.0406,-0.023,-0.0085,0.005,0.0254,0.0267,0.0382,0.0429,0.043,0.0431,0.0597,0.0629,0.0406,0.0405,0.0404,0.0403,0,-0.0651,-0.0667,-0.0705,-0.0723,-0.0728,-0.0744,-0.0735,-0.0724,-0.067,-0.0611,-0.0587,-0.0441,-0.0251,-0.0076,0.0168,0.0269,0.0525,0.0524,0.0495,0.0536,0.0704,0.0726,0.0924,0.0996,0.0664,0.0665,0.0667,0,-0.0673,-0.07,-0.074,-0.0764,-0.0777,-0.0793,-0.0801,-0.0763,-0.0742,-0.062,-0.0589,-0.0405,-0.0248,0.0088,0.0301,0.0541,0.0622,0.0684,0.0661,0.0723,0.0784,0.0795,0.0842,0.0729,0.073,0.0732,0.0733,0,-0.0709,-0.0724,-0.0757,-0.0813,-0.0837,-0.0856,-0.0858,-0.0847,-0.0777,-0.0701,-0.0551,-0.0413,-0.0103,0.0183,0.0464,0.0606,0.0746,0.0717,0.0815,0.0871,0.0865,0.0953,0.0607,0.0744,0.0743,0.0742,0.0742,0.0741,-0.0727,-0.0763,-0.0807,-0.0856,-0.0886,-0.0902,-0.0889,-0.0845,-0.0777,-0.0585,-0.05,-0.0204,0.0083,0.049,0.0634,0.0897,0.0876,0.0979,0.1007,0.1018,0.1068,0.0724,0.089,0.089,0.0889,0.0889,0.0889,0,-0.0747,-0.0791,-0.0845,-0.0897,-0.0929,-0.0933,-0.0909,-0.083,-0.0704,-0.0468,-0.0269,0.0147,0.0447,0.0724,0.1032,0.1176,0.1209,0.1247,0.1278,0.1319,0.1058,0.104,0.1205,0.1205,0.1205,0.1205,0.1205,0.1205,-0.076,-0.0819,-0.0853,-0.0914,-0.0944,-0.0927,-0.0894,-0.0713,-0.0513,-0.0103,0.0232,0.047,0.0757,0.1117,0.1393,0.1427,0.1554,0.154,0.1616,0.1427,0.1403,0.1381,0.1372,0.1605,0.1606,0.1873,0.1875,0.1877]}],[{"header":{"parameterUnit":"m.s-1","parameterCategory":2,"la1":30.2991,"la2":30.254,"lo1":-89.0895,"lo2":-89.0444,"dy":0.0017,"dx":0.0017,"nx":28,"ny":28,"refTime":"2026-02-12T03:00:00:Z","depth":"2","parameterNumber":2,"parameterNumberName":"U-component_of_CURRENTS"},"data":[0,0,0,0,0,0,0,0,0,0,0,0,0,0,0,0,0,0,0,0,0,0,0,0,0,0,0,0,0,0,0,0,0,0,0,0,0,0,0,0,0,0,0,0,0,0,0,0,0,0,0,0,0,0,0,0,0,0,-0.1881,-0.1881,0,-0.1902,-0.1902,-0.1902,-0.1907,-0.1907,-0.1907,-0.1907,-0.1956,-0.1958,-0.1959,0,0,0,0,0,0,0,0,0,0,0,0,0,-0.1835,-0.1836,-0.1881,-0.1881,-0.1882,-0.1902,-0.1902,-0.1902,-0.1907,-0.1907,-0.1907,-0.1907,-0.1956,-0.1957,-0.1959,0,0,0,0,0,0,0,0,0,0,0,0,0,-0.1854,-0.1836,-0.1881,-0.1888,-0.1889,-0.1902,-0.1902,-0.1902,-0.1907,-0.1907,-0.1907,-0.1907,-0.1956,-0.1957,-0.1959,-0.1969,0,0,-0.1965,-0.1966,0,0,0,0,0,0,0,0,-0.1853,-0.1855,-0.1887,-0.1888,-0.1889,-0.1904,-0.1904,-0.1927,-0.1907,-0.1898,-0.1907,-0.1907,-0.1943,-0.1946,-0.1946,-0.1972,-0.1974,-0.1965,-0.1966,-0.1967,-0.1968,0,0,0,0,0,0,0,-0.1851,-0.1854,-0.1887,-0.1887,-0.1889,-0.1887,-0.189,-0.1908,-0.1919,-0.1899,-0.19,-0.1905,-0.1943,-0.1944,-0.1947,-0.1975,-0.1965,-0.1967,-0.1968,-0.1969,-0.1963,-0.1961,0,0,0,0,0,0,-0.1854,-0.1853,-0.1886,-0.1888,-0.1873,-0.1888,-0.1891,-0.1897,-0.1918,-0.1921,-0.1905,-0.1906,-0.1941,-0.1945,-0.1949,-0.195,-0.1967,-0.1969,-0.197,-0.1964,-0.1962,-0.1961,0,0,0,0,0,0,-0.1853,-0.1856,-0.1886,-0.1872,-0.1876,-0.1889,-0.1896,-0.1898,-0.1903,-0.1923,-0.1927,-0.191,-0.1941,-0.1947,-0.1958,-0.1952,-0.197,-0.1971,-0.1965,-0.1963,-0.1962,-0.196,0,0,0,0,0,0,-0.1851,-0.1856,-0.1858,-0.1873,-0.1877,-0.1891,-0.1896,-0.1898,-0.1908,-0.1908,-0.1928,-0.1933,-0.1942,-0.1955,-0.196,-0.1955,-0.1973,-0.1967,-0.1964,-0.1962,-0.1961,-0.1958,-0.1955,0,0,0,0,0,-0.1849,-0.185,-0.1858,-0.1862,-0.1881,-0.1891,-0.1893,-0.1901,-0.1908,-0.1907,-0.1916,-0.1932,-0.1942,-0.1956,-0.1962,-0.1958,-0.1968,-0.1965,-0.1962,-0.1963,-0.1959,-0.1955,0,0,0,0,0,0,-0.183,-0.1851,-0.186,-0.1867,-0.1879,-0.1893,-0.1893,-0.1904,-0.1911,-0.1911,-0.193,-0.1934,-0.194,-0.1943,-0.1958,-0.1943,-0.1952,-0.195,-0.195,-0.1947,-0.1943,-0.1947,-0.1975,0,0,0,0,0,-0.1828,-0.1834,-0.1855,-0.186,-0.1866,-0.1881,-0.1887,-0.1894,-0.1905,-0.1908,-0.1923,-0.1927,-0.1931,-0.1936,-0.194,-0.1943,-0.1938,-0.1936,-0.1933,-0.193,-0.1933,-0.192,-0.1917,-0.1951,-0.1951,-0.1951,0,0,-0.1822,-0.1835,-0.1838,-0.1856,-0.1865,-0.1873,-0.1884,-0.1891,-0.1896,-0.1913,-0.192,-0.1926,-0.1929,-0.1926,-0.1927,-0.1931,-0.1912,-0.1926,-0.1925,-0.1929,-0.1917,-0.1914,-0.1911,-0.1949,-0.195,-0.195,0,0,-0.1813,-0.1824,-0.1827,-0.1838,-0.1854,-0.1864,-0.1868,-0.1884,-0.1888,-0.1897,-0.1903,-0.1903,-0.1915,-0.1911,-0.1911,-0.1892,-0.1899,-0.1888,-0.1878,-0.1865,-0.1863,-0.1861,-0.1835,-0.183,-0.1883,-0.1883,-0.1883,0,-0.1806,-0.1815,-0.1828,-0.1835,-0.1844,-0.1861,-0.1867,-0.1873,-0.189,-0.1893,-0.1895,-0.19,-0.1905,-0.1901,-0.1887,-0.1888,-0.1878,-0.1899,-0.1864,-0.1862,-0.186,-0.1833,-0.1829,-0.1882,-0.1882,-0.1882,-0.1882,0,-0.1801,-0.181,-0.181,-0.1827,-0.1837,-0.1841,-0.1858,-0.1864,-0.1872,-0.188,-0.1881,-0.188,-0.1883,-0.1876,-0.188,-0.1864,-0.1859,-0.1868,-0.1881,-0.1857,-0.1829,-0.1825,-0.1882,-0.1882,-0.1882,-0.1882,0,0,-0.1779,-0.1804,-0.1803,-0.1812,-0.1833,-0.1839,-0.1847,-0.1859,-0.1866,-0.1869,-0.1872,-0.1865,-0.1869,-0.1867,-0.1867,-0.1851,-0.1822,-0.1852,-0.1852,-0.1839,-0.1784,-0.1707,-0.1694,-0.183,-0.183,-0.1829,-0.1765,0,-0.1771,-0.1781,-0.1798,-0.1806,-0.1812,-0.1833,-0.184,-0.1853,-0.1861,-0.1867,-0.1862,-0.1864,-0.1864,-0.1864,-0.1849,-0.1839,-0.1812,-0.1838,-0.1798,-0.1796,-0.1742,-0.1687,-0.1579,-0.1507,-0.176,-0.176,-0.1759,0,-0.1755,-0.1768,-0.1776,-0.1799,-0.1803,-0.1812,-0.1829,-0.1839,-0.1852,-0.1858,-0.186,-0.1865,-0.185,-0.1849,-0.1813,-0.1833,-0.1803,-0.1787,-0.1784,-0.1713,-0.1711,-0.1573,-0.1489,-0.1751,-0.1752,-0.1753,-0.1753,0,-0.1724,-0.1747,-0.1753,-0.1761,-0.1792,-0.1798,-0.1814,-0.1833,-0.184,-0.1853,-0.1856,-0.1852,-0.1841,-0.1819,-0.1784,-0.1802,-0.1733,-0.1755,-0.1651,-0.1646,-0.1545,-0.1531,-0.1711,-0.1711,-0.1712,-0.1712,-0.1712,0,-0.1701,-0.1703,-0.174,-0.1742,-0.1749,-0.178,-0.1787,-0.1804,-0.1824,-0.1825,-0.1848,-0.1838,-0.1834,-0.18,-0.1774,-0.1686,-0.1722,-0.1632,-0.1618,-0.1537,-0.1523,-0.1737,-0.1741,-0.1709,-0.171,-0.171,-0.1711,0,-0.1653,-0.1681,-0.1687,-0.1722,-0.1732,-0.1734,-0.1768,-0.1772,-0.1802,-0.1803,-0.1807,-0.1817,-0.1768,-0.1742,-0.1692,-0.1654,-0.1594,-0.155,-0.1445,-0.1418,-0.1519,-0.1524,-0.1434,-0.143,-0.1427,-0.1425,-0.1423,0,-0.1626,-0.1626,-0.166,-0.1664,-0.1677,-0.1693,-0.1702,-0.1746,-0.1755,-0.1781,-0.1772,-0.1741,-0.1683,-0.1578,-0.1505,-0.1416,-0.149,-0.1277,-0.1286,-0.1492,-0.1488,-0.1497,-0.1505,-0.1148,-0.1144,-0.1141,-0.1138,0,-0.1568,-0.1582,-0.1589,-0.1601,-0.1611,-0.1622,-0.1642,-0.1647,-0.1693,-0.1689,-0.1663,-0.162,-0.152,-0.1368,-0.126,-0.1207,-0.1287,-0.1204,-0.1435,-0.1237,-0.1218,-0.1216,-0.1234,-0.1108,-0.1111,-0.1113,-0.1115,-0.1116,-0.1512,-0.1504,-0.1515,-0.1514,-0.1531,-0.1527,-0.1495,-0.1525,-0.1511,-0.1471,-0.1512,-0.1397,-0.1351,-0.111,-0.1027,-0.0965,-0.1058,-0.1025,-0.1038,-0.1053,-0.1033,-0.101,-0.0857,-0.0859,-0.086,-0.0861,-0.0862,0,-0.1428,-0.1427,-0.1427,-0.1417,-0.1392,-0.1434,-0.1428,-0.1368,-0.1308,-0.1299,-0.1242,-0.1067,-0.0945,-0.0902,-0.075,-0.0711,-0.0729,-0.0689,-0.0726,-0.0754,-0.078,-0.0749,-0.0496,-0.0495,-0.0494,-0.0494,0,0,-0.1383,-0.1346,-0.1344,-0.1268,-0.1262,-0.1178,-0.1145,-0.1075,-0.1033,-0.0935,-0.0872,-0.0902,-0.0882,-0.0703,-0.0646,-0.0548,-0.0651,-0.0516,-0.0808,-0.088,-0.0905,-0.0968,-0.095,0,0,0,0,0]},{"header":{"parameterUnit":"m.s-1","parameterCategory":2,"la1":30.2991,"la2":30.254,"lo1":-89.0895,"lo2":-89.0444,"dy":0.0017,"dx":0.0017,"nx":28,"ny":28,"refTime":"2026-02-12T03:00:00:Z","depth":"2","parameterNumber":3,"parameterNumberName":"V-component_of_CURRENTS"},"data":[0,0,0,0,0,0,0,0,0,0,0,0,0,0,0,0,0,0,0,0,0,0,0,0,0,0,0,0,0,0,0,0,0,0,0,0,0,0,0,0,0,0,0,0,0,0,0,0,0,0,0,0,0,0,0,0,0,0,-0.0519,-0.0519,0,-0.0455,-0.0454,-0.0452,-0.0393,-0.0393,-0.0393,-0.0392,-0.0211,-0.0206,-0.0202,0,0,0,0,0,0,0,0,0,0,0,0,0,-0.0495,-0.0496,-0.0519,-0.0519,-0.0518,-0.0455,-0.0453,-0.0452,-0.0393,-0.0393,-0.0392,-0.0392,-0.0212,-0.0207,-0.0201,0,0,0,0,0,0,0,0,0,0,0,0,0,-0.0471,-0.0496,-0.0519,-0.0485,-0.0482,-0.0455,-0.0453,-0.0452,-0.0393,-0.0393,-0.0392,-0.0392,-0.0214,-0.0207,-0.0201,-0.0165,0,0,-0.018,-0.0177,0,0,0,0,0,0,0,0,-0.0473,-0.0471,-0.049,-0.0487,-0.0484,-0.0436,-0.0379,-0.0352,-0.0393,-0.0421,-0.0392,-0.0392,-0.0279,-0.0267,-0.025,-0.0157,-0.0149,-0.0179,-0.0175,-0.0172,-0.017,0,0,0,0,0,0,0,-0.0474,-0.0473,-0.0488,-0.049,-0.0486,-0.0441,-0.0437,-0.0373,-0.0347,-0.0419,-0.0416,-0.0417,-0.0276,-0.0257,-0.0245,-0.0147,-0.0179,-0.0173,-0.0169,-0.0166,-0.0006,-0.0006,0,0,0,0,0,0,-0.0499,-0.0476,-0.049,-0.0487,-0.0483,-0.0442,-0.0438,-0.0447,-0.035,-0.0337,-0.0417,-0.0415,-0.0269,-0.0253,-0.0238,-0.0182,-0.0172,-0.0165,-0.0161,-0.0006,-0.0006,-0.0006,0,0,0,0,0,0,-0.0499,-0.0501,-0.0493,-0.0483,-0.048,-0.0444,-0.0455,-0.0446,-0.0429,-0.0351,-0.0335,-0.0409,-0.0268,-0.0248,-0.0186,-0.0175,-0.0162,-0.0156,-0.0006,-0.0006,-0.0006,-0.0076,0,0,0,0,0,0,-0.0498,-0.0501,-0.0509,-0.0485,-0.0481,-0.0482,-0.0455,-0.0446,-0.0433,-0.0428,-0.0338,-0.0321,-0.0266,-0.0197,-0.018,-0.0165,-0.0151,-0.0006,-0.0006,-0.0006,-0.0074,-0.0078,-0.0082,0,0,0,0,0,-0.0498,-0.0511,-0.051,-0.0511,-0.0496,-0.0483,-0.0476,-0.0445,-0.0433,-0.0427,-0.0369,-0.0324,-0.0183,-0.0192,-0.0171,-0.0155,-0.0006,-0.0006,-0.0006,-0.0072,-0.0077,-0.0082,0,0,0,0,0,0,-0.0499,-0.0507,-0.0504,-0.0518,-0.0507,-0.0475,-0.0469,-0.0452,-0.0403,-0.0396,-0.032,-0.0299,-0.0241,-0.0191,-0.0203,-0.0109,-0.0088,-0.0083,-0.0145,-0.0149,-0.0153,-0.0171,-0.0145,0,0,0,0,0,-0.0509,-0.0523,-0.0517,-0.0527,-0.0527,-0.05,-0.049,-0.0474,-0.0434,-0.0413,-0.0353,-0.0286,-0.0224,-0.0184,-0.0124,-0.007,-0.0026,-0.0046,-0.0051,-0.0054,-0.0055,0.0011,0.0013,-0.0005,-0.0005,-0.0005,0,0,-0.0512,-0.0519,-0.0525,-0.0529,-0.0516,-0.0515,-0.0491,-0.0484,-0.0471,-0.0399,-0.0353,-0.0298,-0.0215,-0.0158,-0.0127,-0.0113,-0.0028,-0.0054,-0.0058,-0.0056,0.0012,0.0013,0.0015,-0.0005,-0.0005,-0.0005,0,0,-0.0526,-0.0534,-0.055,-0.0547,-0.0544,-0.0527,-0.0531,-0.0505,-0.0481,-0.0441,-0.0384,-0.0327,-0.0234,-0.0172,-0.0129,-0.0118,-0.0057,-0.0099,-0.0124,-0.006,-0.0059,-0.0056,-0.0011,-0.0004,-0.0096,-0.0096,-0.0097,0,-0.0528,-0.0552,-0.0549,-0.0561,-0.056,-0.0538,-0.0546,-0.0519,-0.0472,-0.0447,-0.0435,-0.0304,-0.0238,-0.0159,-0.016,-0.0125,-0.009,-0.0114,-0.0067,-0.0063,-0.006,-0.0013,-0.0005,-0.01,-0.0099,-0.0099,-0.0099,0,-0.0554,-0.0569,-0.0578,-0.0589,-0.0584,-0.0589,-0.0565,-0.0546,-0.0519,-0.0484,-0.0415,-0.0334,-0.0255,-0.0227,-0.0187,-0.0127,-0.0112,-0.0086,-0.0059,-0.0062,-0.0013,-0.0003,-0.0105,-0.0103,-0.0102,-0.0102,0,0,-0.0569,-0.0593,-0.0595,-0.0607,-0.0602,-0.0602,-0.0583,-0.0554,-0.0534,-0.0482,-0.0442,-0.0346,-0.0308,-0.0258,-0.0198,-0.0146,-0.0095,-0.0115,-0.011,-0.0079,0.0031,0.0034,0.0046,-0.0065,-0.0063,-0.0062,0.005,0,-0.0588,-0.0624,-0.0623,-0.0641,-0.0656,-0.0633,-0.0616,-0.0584,-0.0542,-0.0496,-0.0415,-0.0354,-0.0316,-0.0282,-0.0223,-0.0123,-0.007,-0.0129,0.0038,0.0043,0.0039,0.0057,0.0029,0.0126,0.006,0.0062,0.0063,0,-0.0615,-0.0636,-0.0666,-0.0676,-0.0679,-0.0679,-0.0653,-0.0633,-0.0563,-0.0528,-0.046,-0.0398,-0.0307,-0.0282,-0.0121,-0.0163,-0.0076,-0.0005,0.0002,0.0038,0.0065,0.0124,0.0147,0.0081,0.008,0.0078,0.0077,0,-0.0638,-0.0663,-0.069,-0.0696,-0.07,-0.07,-0.0692,-0.0642,-0.0619,-0.0547,-0.0521,-0.041,-0.0346,-0.0231,-0.0093,-0.0103,0.0078,0.0092,0.0178,0.0179,0.0206,0.0206,0.0206,0.0206,0.0206,0.0205,0.0205,0,-0.0667,-0.0686,-0.0706,-0.0723,-0.0744,-0.0731,-0.0728,-0.0703,-0.0653,-0.0619,-0.054,-0.0484,-0.0332,-0.0213,-0.0096,0.007,0.0085,0.0178,0.0214,0.0179,0.0175,0.0179,0.0174,0.021,0.0209,0.0208,0.0207,0,-0.0693,-0.0706,-0.0739,-0.0755,-0.0761,-0.0776,-0.0771,-0.0761,-0.0713,-0.0667,-0.0648,-0.0523,-0.0369,-0.0219,-0.0016,0.0073,0.0226,0.0282,0.0217,0.0243,0.0283,0.0273,0.0389,0.039,0.0391,0.0392,0.0393,0,-0.0711,-0.0734,-0.077,-0.0793,-0.0805,-0.0822,-0.0831,-0.0798,-0.0781,-0.0682,-0.0659,-0.0511,-0.0391,-0.0114,0.0065,0.0266,0.0276,0.0351,0.0333,0.0281,0.0305,0.0293,0.0283,0.0341,0.0341,0.0341,0.0341,0,-0.0741,-0.0755,-0.0784,-0.0838,-0.0863,-0.0883,-0.0888,-0.0884,-0.0826,-0.0768,-0.0657,-0.0553,-0.0301,-0.0086,0.015,0.0265,0.031,0.036,0.0356,0.0286,0.0242,0.0262,0.0253,0.0343,0.0343,0.0343,0.0343,0.0343,-0.0758,-0.079,-0.0832,-0.0878,-0.091,-0.0933,-0.0937,-0.0917,-0.0874,-0.0771,-0.0662,-0.0485,-0.0294,0.0045,0.0213,0.0359,0.036,0.0401,0.0398,0.0396,0.0358,0.0316,0.0424,0.0424,0.0424,0.0425,0.0425,0,-0.0779,-0.0818,-0.0869,-0.0921,-0.0957,-0.0964,-0.0965,-0.094,-0.0879,-0.0764,-0.0631,-0.0391,-0.0158,0.0039,0.0268,0.0405,0.0394,0.0428,0.0386,0.0384,0.0382,0.0341,0.0405,0.0405,0.0405,0.0406,0,0,-0.0792,-0.0847,-0.0878,-0.0945,-0.0979,-0.1,-0.0994,-0.0939,-0.0853,-0.0716,-0.0579,-0.0399,-0.0158,0.0004,0.0177,0.0295,0.0302,0.0306,0.0307,0.0233,0.023,0.035,0.0283,0,0,0,0,0]}],[{"header":{"parameterUnit":"m.s-1","parameterCategory":2,"la1":30.2991,"la2":30.254,"lo1":-89.0895,"lo2":-89.0444,"dy":0.0017,"dx":0.0017,"nx":28,"ny":28,"refTime":"2026-02-12T03:00:00:Z","depth":"4","parameterNumber":2,"parameterNumberName":"U-component_of_CURRENTS"},"data":[0,0,0,0,0,0,0,0,0,0,0,0,0,0,0,0,0,0,0,0,0,0,0,0,0,0,0,0,0,0,0,0,0,0,0,0,0,0,0,0,0,0,0,0,0,0,0,0,0,0,0,0,0,0,0,0,0,0,-0.1274,-0.1274,0,-0.128,-0.128,-0.1279,-0.1282,-0.1282,-0.1282,-0.1282,-0.129,-0.129,-0.129,0,0,0,0,0,0,0,0,0,0,0,0,0,-0.1232,-0.1232,-0.1274,-0.1274,-0.1274,-0.128,-0.128,-0.1279,-0.1282,-0.1282,-0.1282,-0.1283,-0.129,-0.129,-0.129,0,0,0,0,0,0,0,0,0,0,0,0,0,-0.1242,-0.1233,-0.1274,-0.1279,-0.1279,-0.128,-0.128,-0.1279,-0.1281,-0.1282,-0.1282,-0.1283,-0.129,-0.129,-0.129,-0.1281,0,0,-0.129,-0.129,0,0,0,0,0,0,0,0,-0.1241,-0.1243,-0.1278,-0.1278,-0.1279,-0.1283,-0.1268,-0.1281,-0.1281,-0.1277,-0.1282,-0.1283,-0.129,-0.129,-0.1285,-0.1281,-0.1282,-0.129,-0.129,-0.129,-0.129,0,0,0,0,0,0,0,-0.1241,-0.1243,-0.1273,-0.1278,-0.1279,-0.127,-0.1272,-0.127,-0.1278,-0.1278,-0.1279,-0.1284,-0.129,-0.1285,-0.1285,-0.1282,-0.129,-0.129,-0.129,-0.129,-0.1321,-0.1322,0,0,0,0,0,0,-0.1248,-0.1242,-0.1273,-0.1273,-0.1265,-0.1271,-0.1272,-0.1279,-0.1278,-0.128,-0.1284,-0.1285,-0.1285,-0.1286,-0.1286,-0.1329,-0.129,-0.129,-0.1289,-0.132,-0.1322,-0.1323,0,0,0,0,0,0,-0.1247,-0.1251,-0.1272,-0.126,-0.1263,-0.1271,-0.1278,-0.1279,-0.1297,-0.1284,-0.1285,-0.1305,-0.1286,-0.1286,-0.1305,-0.1328,-0.1289,-0.1289,-0.1319,-0.1321,-0.1322,-0.1382,0,0,0,0,0,0,-0.1246,-0.125,-0.1265,-0.1261,-0.1264,-0.1285,-0.1278,-0.1279,-0.13,-0.1301,-0.1302,-0.1301,-0.1286,-0.1305,-0.1305,-0.1327,-0.1289,-0.1318,-0.132,-0.1322,-0.1379,-0.1385,-0.1391,0,0,0,0,0,-0.1244,-0.1254,-0.1266,-0.127,-0.1282,-0.1286,-0.1286,-0.1291,-0.1301,-0.1309,-0.1315,-0.1303,-0.1315,-0.1306,-0.1305,-0.1328,-0.1317,-0.132,-0.1322,-0.1376,-0.1384,-0.139,0,0,0,0,0,0,-0.1241,-0.1256,-0.1268,-0.1283,-0.1294,-0.1288,-0.1298,-0.1306,-0.1317,-0.1325,-0.1314,-0.1314,-0.134,-0.1325,-0.1315,-0.1342,-0.1314,-0.1316,-0.1356,-0.1363,-0.1369,-0.1356,-0.1289,0,0,0,0,0,-0.125,-0.1265,-0.1275,-0.1291,-0.1298,-0.1306,-0.1313,-0.1319,-0.1325,-0.133,-0.1336,-0.1339,-0.1343,-0.1348,-0.1347,-0.1362,-0.1334,-0.1376,-0.1381,-0.1387,-0.1376,-0.1361,-0.1365,-0.1329,-0.1329,-0.1329,0,0,-0.1255,-0.1265,-0.1275,-0.1292,-0.13,-0.1312,-0.1311,-0.1327,-0.1342,-0.1329,-0.1359,-0.1364,-0.1353,-0.137,-0.138,-0.1364,-0.1384,-0.1389,-0.1394,-0.138,-0.1364,-0.1367,-0.137,-0.1331,-0.133,-0.133,0,0,-0.126,-0.1281,-0.1293,-0.1304,-0.1326,-0.133,-0.1343,-0.1356,-0.137,-0.1395,-0.1393,-0.1411,-0.1421,-0.1415,-0.1412,-0.1449,-0.1419,-0.1458,-0.1475,-0.1463,-0.1465,-0.1467,-0.1441,-0.144,-0.1458,-0.1458,-0.1458,0,-0.1268,-0.1283,-0.1297,-0.131,-0.1324,-0.1343,-0.1357,-0.137,-0.1392,-0.1404,-0.1413,-0.1435,-0.1436,-0.1446,-0.1462,-0.1462,-0.1445,-0.1452,-0.147,-0.1471,-0.1471,-0.1445,-0.1443,-0.1461,-0.1461,-0.146,-0.146,0,-0.1272,-0.1296,-0.1303,-0.1329,-0.1345,-0.1361,-0.1382,-0.1408,-0.1434,-0.1445,-0.1476,-0.1479,-0.1487,-0.1499,-0.1493,-0.1505,-0.1489,-0.1483,-0.1451,-0.1479,-0.1449,-0.1446,-0.1466,-0.1464,-0.1464,-0.1463,0,0,-0.1259,-0.13,-0.1306,-0.1324,-0.1359,-0.1369,-0.1403,-0.1429,-0.145,-0.148,-0.1501,-0.1523,-0.1531,-0.1527,-0.1529,-0.1522,-0.1524,-0.151,-0.1508,-0.1482,-0.1488,-0.1387,-0.1373,-0.1526,-0.1526,-0.1525,-0.1466,0,-0.1261,-0.1289,-0.1311,-0.1344,-0.1359,-0.1392,-0.1418,-0.1448,-0.1476,-0.1501,-0.1514,-0.1534,-0.154,-0.1552,-0.1548,-0.1533,-0.1518,-0.1539,-0.1465,-0.1462,-0.1367,-0.1367,-0.1525,-0.1464,-0.1463,-0.1462,-0.1462,0,-0.1251,-0.1274,-0.1307,-0.1353,-0.1363,-0.139,-0.1435,-0.1462,-0.1498,-0.1519,-0.1541,-0.1551,-0.156,-0.1557,-0.1531,-0.1548,-0.152,-0.15,-0.1497,-0.1374,-0.1355,-0.1428,-0.1456,-0.1456,-0.1457,-0.1457,-0.1458,0,-0.1219,-0.1268,-0.1298,-0.1314,-0.1368,-0.1396,-0.1428,-0.147,-0.1491,-0.1531,-0.1544,-0.1558,-0.156,-0.1541,-0.1509,-0.1525,-0.146,-0.1474,-0.135,-0.1343,-0.1427,-0.1425,-0.1438,-0.1438,-0.1438,-0.1438,-0.1438,0,-0.1195,-0.122,-0.1291,-0.1306,-0.1342,-0.1388,-0.1426,-0.1459,-0.1499,-0.1509,-0.1552,-0.1545,-0.1556,-0.1525,-0.1501,-0.1403,-0.1451,-0.1337,-0.1315,-0.1455,-0.1457,-0.1424,-0.1424,-0.1436,-0.1436,-0.1437,-0.1437,0,-0.1144,-0.1194,-0.1231,-0.1303,-0.1327,-0.1354,-0.142,-0.1437,-0.1488,-0.15,-0.1512,-0.1531,-0.1484,-0.1468,-0.1419,-0.137,-0.1303,-0.1254,-0.1388,-0.1378,-0.12,-0.1204,-0.1114,-0.111,-0.1107,-0.1104,-0.1101,0,-0.1117,-0.1133,-0.1219,-0.1242,-0.1279,-0.1329,-0.1354,-0.142,-0.1432,-0.1471,-0.1459,-0.1441,-0.1436,-0.1272,-0.1281,-0.1202,-0.1187,-0.1151,-0.1189,-0.1176,-0.1165,-0.1174,-0.1182,-0.1095,-0.1094,-0.1094,-0.1093,0,-0.1059,-0.1104,-0.1134,-0.1184,-0.1224,-0.1256,-0.1299,-0.1297,-0.1355,-0.1418,-0.1353,-0.1309,-0.1242,-0.119,-0.1122,-0.1079,-0.118,-0.1114,-0.1122,-0.1157,-0.1153,-0.1147,-0.1159,-0.108,-0.1082,-0.1083,-0.1084,0,-0.1015,-0.1024,-0.1072,-0.1101,-0.1152,-0.1155,-0.1192,-0.119,-0.1205,-0.1255,-0.1227,-0.1205,-0.1224,-0.1123,-0.1071,-0.1006,-0.0999,-0.0975,-0.0991,-0.1004,-0.0995,-0.0975,-0.0812,0,0,0,0,0,-0.096,-0.0956,-0.0981,-0.1004,-0.1051,-0.1073,-0.1137,-0.1174,-0.1235,-0.1153,-0.1185,-0.1117,-0.1028,-0.1022,-0.0927,-0.1023,-0.1007,-0.0911,-0.0992,-0.1012,-0.1026,-0.1025,0,0,0,0,0,0,-0.0922,-0.0942,-0.0946,-0.0913,-0.0907,-0.0939,-0.0973,-0.1018,-0.098,-0.1045,-0.0994,-0.1045,-0.0967,-0.1045,-0.0898,-0.0896,-0.0923,-0.091,-0.0907,-0.1004,-0.1017,-0.1028,-0.1032,0,0,0,0,0]},{"header":{"parameterUnit":"m.s-1","parameterCategory":2,"la1":30.2991,"la2":30.254,"lo1":-89.0895,"lo2":-89.0444,"dy":0.0017,"dx":0.0017,"nx":28,"ny":28,"refTime":"2026-02-12T03:00:00:Z","depth":"4","parameterNumber":3,"parameterNumberName":"V-component_of_CURRENTS"},"data":[0,0,0,0,0,0,0,0,0,0,0,0,0,0,0,0,0,0,0,0,0,0,0,0,0,0,0,0,0,0,0,0,0,0,0,0,0,0,0,0,0,0,0,0,0,0,0,0,0,0,0,0,0,0,0,0,0,0,-0.0401,-0.0401,0,-0.0376,-0.0376,-0.0375,-0.036,-0.036,-0.036,-0.0361,-0.029,-0.0288,-0.0286,0,0,0,0,0,0,0,0,0,0,0,0,0,-0.0372,-0.0372,-0.0401,-0.0401,-0.0401,-0.0376,-0.0376,-0.0375,-0.036,-0.036,-0.0361,-0.0361,-0.0291,-0.0289,-0.0286,0,0,0,0,0,0,0,0,0,0,0,0,0,-0.0367,-0.0373,-0.0401,-0.0392,-0.0392,-0.0376,-0.0376,-0.0375,-0.036,-0.036,-0.0361,-0.0361,-0.0292,-0.0289,-0.0286,-0.0261,0,0,-0.0277,-0.0275,0,0,0,0,0,0,0,0,-0.0367,-0.0368,-0.0394,-0.0393,-0.0392,-0.0374,-0.034,-0.0336,-0.036,-0.0369,-0.0361,-0.0361,-0.0316,-0.0311,-0.0302,-0.0258,-0.0255,-0.0276,-0.0274,-0.0273,-0.0272,0,0,0,0,0,0,0,-0.0368,-0.0368,-0.0388,-0.0394,-0.0393,-0.0369,-0.0368,-0.0339,-0.0338,-0.0368,-0.0368,-0.037,-0.0315,-0.0305,-0.03,-0.0254,-0.0276,-0.0274,-0.0272,-0.0271,-0.0169,-0.0168,0,0,0,0,0,0,-0.038,-0.0369,-0.0389,-0.0388,-0.0383,-0.0369,-0.0369,-0.0377,-0.0339,-0.0335,-0.0369,-0.0369,-0.031,-0.0304,-0.0298,-0.0264,-0.0273,-0.027,-0.0268,-0.017,-0.0169,-0.0168,0,0,0,0,0,0,-0.0379,-0.0382,-0.039,-0.0379,-0.0379,-0.037,-0.0379,-0.0377,-0.0375,-0.0341,-0.0336,-0.0372,-0.031,-0.0302,-0.0272,-0.0262,-0.0269,-0.0266,-0.0171,-0.017,-0.0169,-0.0199,0,0,0,0,0,0,-0.0379,-0.0382,-0.0392,-0.0381,-0.038,-0.0389,-0.0379,-0.0376,-0.0377,-0.0376,-0.0341,-0.0335,-0.031,-0.0277,-0.0269,-0.0258,-0.0264,-0.0172,-0.017,-0.0169,-0.0199,-0.0199,-0.0199,0,0,0,0,0,-0.0378,-0.039,-0.0392,-0.0395,-0.0394,-0.039,-0.0387,-0.0379,-0.0377,-0.0378,-0.035,-0.0336,-0.0261,-0.0274,-0.0265,-0.0252,-0.0173,-0.0171,-0.0169,-0.0199,-0.0199,-0.0199,0,0,0,0,0,0,-0.0381,-0.039,-0.0392,-0.0407,-0.0403,-0.0388,-0.0391,-0.0384,-0.0364,-0.0364,-0.0329,-0.032,-0.0287,-0.0264,-0.028,-0.0216,-0.0213,-0.0209,-0.0239,-0.0238,-0.0238,-0.0257,-0.0261,0,0,0,0,0,-0.0388,-0.0402,-0.0401,-0.0413,-0.0415,-0.0404,-0.0402,-0.0398,-0.038,-0.0372,-0.0345,-0.0309,-0.027,-0.0253,-0.0218,-0.0188,-0.0165,-0.0171,-0.0171,-0.0171,-0.0179,-0.013,-0.0126,-0.0162,-0.0162,-0.0162,0,0,-0.0392,-0.0399,-0.0407,-0.0414,-0.0412,-0.0414,-0.0403,-0.0407,-0.0401,-0.0366,-0.0347,-0.031,-0.0262,-0.0225,-0.0208,-0.0207,-0.0148,-0.0169,-0.0169,-0.0177,-0.0127,-0.0124,-0.0121,-0.0161,-0.0161,-0.0161,0,0,-0.0405,-0.0416,-0.043,-0.0431,-0.0436,-0.0428,-0.0433,-0.0422,-0.0411,-0.039,-0.0355,-0.0314,-0.0267,-0.0223,-0.0196,-0.0173,-0.0149,-0.0161,-0.0176,-0.0128,-0.0125,-0.0123,-0.009,-0.0084,-0.0161,-0.0161,-0.0161,0,-0.0409,-0.0429,-0.0431,-0.0443,-0.0447,-0.0437,-0.0447,-0.0432,-0.0409,-0.0394,-0.039,-0.0301,-0.0262,-0.0204,-0.0196,-0.0173,-0.0151,-0.0184,-0.013,-0.0126,-0.0123,-0.009,-0.0083,-0.0162,-0.0162,-0.0162,-0.0162,0,-0.043,-0.0446,-0.0455,-0.0468,-0.0469,-0.0477,-0.0464,-0.0455,-0.0442,-0.042,-0.037,-0.0313,-0.0261,-0.0235,-0.021,-0.0159,-0.0154,-0.0137,-0.0137,-0.0122,-0.0088,-0.008,-0.0164,-0.0164,-0.0163,-0.0163,0,0,-0.0439,-0.0465,-0.0469,-0.0481,-0.0485,-0.0489,-0.048,-0.0464,-0.0454,-0.0418,-0.0392,-0.0316,-0.0288,-0.0255,-0.0209,-0.0168,-0.0121,-0.0151,-0.0148,-0.0131,-0.0029,-0.0052,-0.0046,-0.0099,-0.0098,-0.0097,-0.0016,0,-0.0455,-0.0487,-0.049,-0.0511,-0.0526,-0.0516,-0.0508,-0.049,-0.0464,-0.0434,-0.0369,-0.0326,-0.0294,-0.0268,-0.022,-0.0143,-0.0102,-0.0145,-0.0036,-0.0033,-0.0065,-0.0038,-0.0093,-0.001,-0.0008,-0.0007,-0.0006,0,-0.0473,-0.0493,-0.0523,-0.054,-0.0544,-0.0553,-0.0543,-0.0532,-0.0485,-0.0463,-0.0411,-0.0364,-0.029,-0.027,-0.0143,-0.0176,-0.011,-0.0054,-0.0049,-0.0058,-0.0042,-0.0024,0.0008,0.0007,0.0006,0.0005,0.0004,0,-0.0485,-0.0514,-0.0541,-0.0549,-0.0563,-0.0571,-0.0573,-0.0543,-0.0531,-0.0481,-0.0463,-0.0376,-0.0328,-0.0237,-0.013,-0.0134,0.0001,0.0017,0.0059,0.0058,0.0066,0.0062,0.0103,0.0103,0.0103,0.0103,0.0102,0,-0.0499,-0.0521,-0.0554,-0.057,-0.0598,-0.0596,-0.0606,-0.0593,-0.0563,-0.0542,-0.0481,-0.0439,-0.0319,-0.023,-0.0136,-0.0021,0.0002,0.0057,0.008,0.0052,0.0046,0.0071,0.0066,0.0106,0.0105,0.0105,0.0104,0,-0.0508,-0.053,-0.0566,-0.0596,-0.0609,-0.0629,-0.0645,-0.0643,-0.0614,-0.0585,-0.0572,-0.0478,-0.0364,-0.0247,-0.0091,-0.003,0.0084,0.012,0.0069,0.0088,0.011,0.0103,0.0177,0.0177,0.0177,0.0177,0.0177,0,-0.0514,-0.0537,-0.0591,-0.062,-0.064,-0.0669,-0.0687,-0.0674,-0.0665,-0.06,-0.0582,-0.0479,-0.0405,-0.02,-0.0087,0.0078,0.01,0.0147,0.0137,0.0104,0.012,0.0112,0.0106,0.0177,0.0177,0.0177,0.0177,0,-0.0525,-0.0551,-0.0583,-0.0646,-0.0682,-0.0712,-0.0732,-0.0726,-0.0694,-0.067,-0.057,-0.0465,-0.0341,-0.0194,-0.0078,0.0044,0.0109,0.0147,0.0148,0.014,0.0104,0.0118,0.0112,0.0176,0.0176,0.0176,0.0176,0,-0.0532,-0.0561,-0.0612,-0.0662,-0.0713,-0.074,-0.0747,-0.0723,-0.0705,-0.0627,-0.0592,-0.0453,-0.037,-0.0211,-0.0095,0.0008,0.0038,0.0068,0.0074,0.0075,0.0013,-0.0049,-0.0001,0,0,0,0,0,-0.0534,-0.0571,-0.0623,-0.0678,-0.0729,-0.0754,-0.0769,-0.0763,-0.073,-0.066,-0.0621,-0.0499,-0.0318,-0.0237,-0.0134,-0.0111,0.0037,0.0008,0.0069,0.0175,0.0175,0.0117,0,0,0,0,0,0,-0.0539,-0.0592,-0.0621,-0.068,-0.0718,-0.0764,-0.0774,-0.0752,-0.0702,-0.0652,-0.055,-0.0487,-0.031,-0.0373,-0.0134,-0.0104,-0.0055,0.0097,0.0098,0.0175,0.0175,0.0175,0.0115,0,0,0,0,0]}]]